User: anonymous   Login
Location: Unspecified
(0.0000°N, 0.0000°E)
Time: 02:07:34
(UTC+00:00)
Language:

Courier 1B - Orbit

View from above orbital plane
View from above orbital plane
View from above satellite
View from above satellite

Ground track
Ground track

The orbit data is extracted from the following two-line orbital elements,

1 00058U 60013A   16240.62837383  .00000099  00000-0  24572-4 0  9998
2 00058  28.3274 305.4904 0165081  82.8810 279.0474 13.46304259751715
Epoch (UTC): 27 August 2016 15:04:51
Eccentricity: 0.0165081
inclination: 28.3274°
perigee height: 962 km
apogee height: 1209 km
right ascension of ascending node: 305.4904°
argument of perigee: 82.8810°
revolutions per day: 13.46304259
mean anomaly at epoch: 279.0474°
orbit number at epoch: 75171

The dashed part of the orbit path shows where the satellite is in the earth's shadow,  

DLR